Regional Weather Roundup
Issued by NWS

Home | Current Version | Previous Version | Text Only | Print | Product List | Glossary On
Versions: 1 2 3 4 5 6 7 8 9 10 11 12 13 14 15 16 17 18 19 20 21 22 23 24 25 26 27 28 29 30 31 32 33 34 35 36 37 38 39 40 41 42 43 44 45 46 47 48 49 50
000
ASHW40 PHFO 211443
RWRHI

WEATHER ROUNDUP FOR HAWAII
NATIONAL WEATHER SERVICE HONOLULU HI
400 AM HST SUN SEP 21 2014

THIS IS AN AUTOMATED REPORT THAT HAS NOT BEEN QUALITY CONTROLLED.

NOTE..."FAIR" INDICATES FEW OR NO CLOUDS BELOW 12,000 FEET WITH NO
SIGNIFICANT WEATHER AND/OR OBSTRUCTIONS TO VISIBILITY.

* - THESE SITES REPORT LIMITED FIELDS

HIZ001>004-211500-
KAUAI-NIIHAU-

CITY           SKY/WX    TMP DP  RH WIND       PRES   REMARKS
LIHUE APT      PTCLDY    74  69  85 W8        29.94S
PORT ALLEN*      N/A     72 N/A N/A N6          N/A
POIPU*           N/A     75 N/A N/A VRB3        N/A
PRINCEVILLE*   NOT AVBL
KOKOLE POINT*    N/A     75 N/A N/A MISG        N/A
MOLOAA DAIRY*  NOT AVBL
WAIMEA HTS*      N/A     75  63  64 N1G8        N/A
PUU OPAE*        N/A     70  63  78 CALM        N/A
PUU LUA*       NOT AVBL
MAKAHA RIDGE*  NOT AVBL
$$

HIZ005>011-211500-
OAHU-

CITY           SKY/WX    TMP DP  RH WIND       PRES   REMARKS
HONOLULU       PTCLDY    78  71  79 N3        29.92S
KALAELOA       PTCLDY    73  72  94 CALM      29.93F
KANEOHE MCB    PTCLDY   N/A N/A N/A CALM      29.93S
WHEELER FIELD  NOT AVBL
BELLOWS*         N/A    N/A N/A N/A E9          N/A
KAHUKU*          N/A    N/A N/A N/A E2          N/A
WHEELER*       NOT AVBL
WAIANAE HARBOR NOT AVBL
DILLINGHAM*      N/A     70  68  94 CALM        N/A
KAHUKU TRN*      N/A     73  72  94 SE3G9       N/A
KAWAILOA*      NOT AVBL
KII*             N/A     77  72  83 SE5G13      N/A
MAKUA RANGE*     N/A     73  70  88 SE3         N/A
OAHU FOREST NW   N/A     70  70 100 VRB9G16     N/A
SCHOFIELD BRK*   N/A     70  68  94 MISG        N/A
SCHOFIELD S*   NOT AVBL
WAIANAE VLY*     N/A     72  70  94 N5          N/A
KUAOKALA*        N/A     75  70  83 CALM        N/A
HONOULIUULI*   NOT AVBL
MOKUOLOE IS*     N/A    N/A N/A N/A MISG        N/A
PALEHUA*         N/A     81  73  78 CALM        N/A
WAIAWA PHB*    NOT AVBL
$$

HIZ012>013-211500-
MOLOKAI-

CITY           SKY/WX    TMP DP  RH WIND       PRES   REMARKS
MOLOKAI AIRPT  CLEAR     72  71  97 NE5       29.94S
KALAUPAPA      NOT AVBL
MAKAPULAPAI*     N/A     77  72  83 SE3G10      N/A
MOLOKAI 1*       N/A     66  66 100 N2          N/A
PUU ALII*        N/A     64  64  98 SE1         N/A
$$

HIZ016-211500-
KAHOOLAWE-

CITY           SKY/WX    TMP DP  RH WIND       PRES   REMARKS
KAHOOLAWE*       N/A     73 N/A N/A E8          N/A
HAKIOAWA*      NOT AVBL
HONOKANAIA*      N/A     79  71  76 NE8G16    29.93S
KANELOA*         N/A     79  73  83 E14G21    29.16F
KEALIALALO*    NOT AVBL
LUA MAKIKA*    NOT AVBL
$$

HIZ014>015-211500-
LANAI-

CITY           SKY/WX    TMP DP  RH WIND       PRES   REMARKS
LANAI CITY     FAIR      73  73 100 NE6       29.99S
LANAI 1*         N/A     72  72 100 NE9         N/A
$$

HIZ017>028-211500-
MAUI-

CITY           SKY/WX    TMP DP  RH WIND       PRES   REMARKS
KAHULUI        MOCLDY    76  70  82 E3        29.92F
KAPALUA-W MAUI NOT AVBL
HANA AIRPORT   MOCLDY    77  73  88 CALM      29.96R
HANA*            N/A     79 N/A N/A SE3G9       N/A
HALEAKALA SUMM   N/A     45  43  93 W3          N/A
MAALAEA BAY*   NOT AVBL
HALEAKALA*     NOT AVBL
KAUPO GAP*       N/A     61  57  88 N1G9        N/A
KULA 1*          N/A     56  49  79 E5          N/A
$$

HIZ023>026-211500-
BIG ISLAND OF HAWAII COAST AND LOWER SLOPES-

CITY           SKY/WX    TMP DP  RH WIND       PRES   REMARKS
KAILUA KONA    CLEAR     80  71  74 S5        29.90S
HILO           PTCLDY    75  70  84 SW6       29.92F
HONOKAA*       NOT AVBL
KAWAIHAE MWT*    N/A     81 N/A N/A NE7         N/A
KAWAIHAE*        N/A     81 N/A N/A NE3         N/A
SOUTH POINT*     N/A     73 N/A N/A NE9         N/A
UPOLU AIRPORT*   N/A    N/A N/A N/A E7          N/A
KAMUELA*       SUNNY     63  59  88 E7        30.06R FOG
HAKALAU*         N/A     53  51  92 SW5         N/A
KALOKO-HONOKO*   N/A     77  70  78 E3        29.89S
PALI 2*          N/A     68  66  94 NE5         N/A
KEALAKOMO*       N/A     79  70  73 N5          N/A
KAUPULEHU*       N/A     73  64  73 SE6         N/A
KAPAPALA*        N/A     69  68  96 CALM        N/A
LOWER KAHUKU*  NOT AVBL
PUHE CS*       NOT AVBL
PUHO CS*         N/A     74  74 100 E2          N/A
PTA KEAMUKU*     N/A    N/A N/A N/A CALM        N/A
WAIKOLOA*        N/A     72  64  78 E5          N/A
$$

HIZ027>028-211500-
BIG ISLAND OF HAWAII INTERIOR AND SUMMMITS-

CITY           SKY/WX    TMP DP  RH WIND       PRES   REMARKS
BRADSHAW FIELD CLOUDY    55  51  88 SE2       30.32R
MK VISITOR CEN   N/A      0   0 100 MISG        N/A
MAUNA KEA*       N/A     34  32  93 NW20        N/A  WCI  22
MAUNA LOA*       N/A     39  32  75 MISG        N/A
MAUNA LOA 1*     N/A     41  34  75 MISG        N/A
PTA KIPUKA*      N/A     57  55  94 E3          N/A
PTA RANGE 17*    N/A     57  55  94 E5          N/A
PTA WEST*        N/A     61  57  88 SE5         N/A
NENE CABIN*    NOT AVBL
AHUMOA*          N/A     56  51  84 CALM        N/A
PTA PORTABLE*  NOT AVBL
PUU MALI*      NOT AVBL
$$

HIC003-211500-
NORTHWEST ISLANDS-

CITY           SKY/WX    TMP DP  RH WIND       PRES   REMARKS
MIDWAY ISLAND  CLOUDY    79  75  89 E15       30.04F
MIDWAY NOS*    NOT AVBL
FRENCH FRIGATE NOT AVBL
$$

PHZ110>124-180-211500-
BUOY REPORTS

STATION/POSITION TIME  TEMP    WIND        PRES    WAVE   SWELL
                       AIR SEA DIR/SP/G            HT/PER HT/DIR
                 (UTC) (F)     (DEG/KT/KT) (MB)    (FT/S) (FT/D)
BUOY 51001       NOT AVBL
BUOY 51101       NOT AVBL
BUOY 51100       1400   80 82  120/  8/ 10 1014.5R
BUOY 51003       1400   81 83   90/ 14/ 17 1011.9F   5/11   3
BUOY 51004       1259   81 81  110/ 12/ 14 1012.3F   4/11   3/140
BARBERS PT BUOY  NOT AVBL
WAIMEA BAY BUOY  1400      82                N/A     3/10
KAILUA BAY BUOY  1400      82                N/A     4/10   2/ 60
LANAI BUOY       NOT AVBL
BARBERS PT 2     1400      83                N/A     3/11   2/170
PAUWELA MAUI     1400      81                N/A     3/11   2/ 10
HILO             1400      82                N/A     3/11   2/350
KANEOHE BAY BUOY NOT AVBL
HANALEI KAUAI    NOT AVBL
KAHULUI HARBOR   1400   78 83  290/  2/  3 1013.2R
HONOLULU HARBOR  1400   78      CALM  /  2 1013.6R
KILO NALU        NOT AVBL
HILO HARBOR      1400   75     190/  5/  7 1013.2R
MOKUOLOE         1400   80 85   80/  4/  5 1013.7R
NAWILIWILI       1400      83                N/A
WHOTS BUOY       NOT AVBL
BUOY 51028       NOT AVBL
$$

......................KEY........................................
  SKY/WX - SKY CONDITIONS/PRESENT WEATHER
  TMP    - TEMPERATURE IN FAHRENHEIT
  DWPT   - DEWPOINT IN FAHRENHEIT
  RH     - RELATIVE HUMIDITY IN PERCENT
  WIND   - DIRECTION AND SPEED /MPH FOR ISLANDS...KTS FOR BUOYS/
  PRES   - MEAN SEA LEVEL PRESSURE IN INCHES OF HG
  VSB    - VISIBILITY IN MILES
  HX     - HEAT INDEX
  WCI    - WIND CHILL INDEX
  VRB    - VARIABLE WIND DIRECTION
  N/A    - NOT AVAILABLE


USA.gov is the U.S. government's official web portal to all federal, state and local government web resources and services.